TimeEST,TemperatureF,Dew PointF,Humidity,Sea Level PressureIn,VisibilityMPH,Wind Direction,Wind SpeedMPH,Gust SpeedMPH,PrecipitationIn,Events,Conditions,WindDirDegrees,DateUTC
12:01 AM,48.2,48.2,100,30.18,7.0,South,5.8,-,N/A,,Mostly Cloudy,180,2013-02-11 05:01:00
12:33 AM,48.2,48.2,100,30.14,6.0,South,10.4,19.6,0.01,Rain,Light Rain,170,2013-02-11 05:33:00
12:54 AM,50.0,50.0,100,30.15,5.0,South,9.2,18.4,0.01,Rain,Light Rain,180,2013-02-11 05:54:00
1:54 AM,52.0,52.0,100,30.13,7.0,South,11.5,20.7,0.01,Rain,Light Rain,170,2013-02-11 06:54:00
2:07 AM,53.6,51.8,94,30.12,8.0,South,10.4,17.3,0.00,Rain,Light Rain,170,2013-02-11 07:07:00
2:54 AM,54.0,53.1,97,30.10,9.0,South,8.1,-,0.01,Rain,Light Rain,180,2013-02-11 07:54:00
3:54 AM,55.0,54.0,96,30.07,9.0,South,10.4,-,0.00,,Overcast,180,2013-02-11 08:54:00
4:54 AM,55.0,55.0,100,30.08,5.0,South,3.5,-,0.02,Rain,Light Rain,190,2013-02-11 09:54:00
5:54 AM,55.9,55.0,97,30.09,5.0,SSW,8.1,-,0.02,Rain,Light Rain,200,2013-02-11 10:54:00
7:04 AM,55.4,55.4,100,30.08,2.5,Calm,Calm,-,0.00,Rain,Light Rain,0,2013-02-11 12:04:00
7:25 AM,55.4,53.6,94,30.07,3.0,South,3.5,-,0.03,Rain,Light Rain,180,2013-02-11 12:25:00
7:54 AM,55.0,54.0,96,30.05,3.0,South,5.8,-,0.03,,Overcast,180,2013-02-11 12:54:00
8:12 AM,55.4,55.4,100,30.06,2.0,South,6.9,-,N/A,,Overcast,190,2013-02-11 13:12:00
8:45 AM,55.4,55.4,100,30.08,1.8,Variable,5.8,-,N/A,,Overcast,0,2013-02-11 13:45:00
8:54 AM,55.0,55.0,100,30.08,1.5,Variable,4.6,-,N/A,,Overcast,0,2013-02-11 13:54:00
9:33 AM,55.4,55.4,100,30.06,0.8,SSW,4.6,-,N/A,,Overcast,200,2013-02-11 14:33:00
9:43 AM,55.4,55.4,100,30.06,1.5,SSW,3.5,-,N/A,,Overcast,200,2013-02-11 14:43:00
9:51 AM,55.4,55.4,100,30.06,3.0,SSW,3.5,-,N/A,,Overcast,210,2013-02-11 14:51:00
9:52 AM,55.9,55.9,100,30.06,3.0,SSW,4.6,-,N/A,,Overcast,210,2013-02-11 14:52:00
10:01 AM,55.4,55.4,100,30.06,1.8,Variable,4.6,-,N/A,,Overcast,0,2013-02-11 15:01:00
10:54 AM,57.0,57.0,100,30.04,1.0,Variable,5.8,-,N/A,,Overcast,0,2013-02-11 15:54:00
11:08 AM,57.2,57.2,100,30.04,0.8,SSW,6.9,-,N/A,,Overcast,200,2013-02-11 16:08:00
11:41 AM,57.2,57.2,100,30.05,1.2,SSW,5.8,-,0.01,Rain,Light Rain,210,2013-02-11 16:41:00
11:54 AM,57.0,57.0,100,30.05,1.5,SW,4.6,-,0.01,,Overcast,230,2013-02-11 16:54:00
12:54 PM,55.9,55.0,97,30.01,1.5,SW,8.1,-,N/A,,Overcast,220,2013-02-11 17:54:00
1:54 PM,55.9,55.9,100,30.00,2.0,SW,9.2,-,N/A,,Overcast,220,2013-02-11 18:54:00
2:04 PM,57.2,55.4,94,29.99,4.0,SW,6.9,18.4,N/A,,Overcast,230,2013-02-11 19:04:00
2:54 PM,55.9,55.9,100,29.99,5.0,SW,9.2,23.0,N/A,,Overcast,220,2013-02-11 19:54:00
3:54 PM,57.0,55.9,96,29.97,10.0,Variable,6.9,-,N/A,,Overcast,0,2013-02-11 20:54:00
4:28 PM,57.2,55.4,94,30.00,10.0,SW,5.8,-,N/A,,Overcast,230,2013-02-11 21:28:00
4:49 PM,57.2,55.4,94,29.97,10.0,South,6.9,-,N/A,,Overcast,190,2013-02-11 21:49:00
4:54 PM,57.9,55.9,93,29.96,10.0,Variable,5.8,-,N/A,,Overcast,0,2013-02-11 21:54:00
5:54 PM,57.9,55.0,90,30.00,10.0,SW,9.2,-,N/A,,Scattered Clouds,230,2013-02-11 22:54:00
6:02 PM,57.2,55.4,94,30.00,10.0,SW,4.6,-,N/A,,Mostly Cloudy,230,2013-02-11 23:02:00
6:22 PM,57.2,55.4,94,30.00,10.0,SW,8.1,-,N/A,,Scattered Clouds,230,2013-02-11 23:22:00
6:54 PM,57.0,55.0,93,30.01,10.0,Variable,5.8,-,N/A,,Partly Cloudy,0,2013-02-11 23:54:00
7:54 PM,55.9,54.0,93,30.01,10.0,Variable,5.8,-,N/A,,Partly Cloudy,0,2013-02-12 00:54:00
8:39 PM,55.4,53.6,94,30.01,10.0,SW,6.9,-,N/A,,Partly Cloudy,230,2013-02-12 01:39:00
8:54 PM,55.0,53.1,93,30.01,10.0,SSW,6.9,-,N/A,,Clear,210,2013-02-12 01:54:00
9:54 PM,53.1,52.0,96,30.01,10.0,SW,6.9,-,N/A,,Clear,220,2013-02-12 02:54:00
10:54 PM,53.1,51.1,93,29.99,10.0,WSW,5.8,-,N/A,,Clear,240,2013-02-12 03:54:00
11:54 PM,52.0,51.1,97,29.99,10.0,Calm,Calm,-,N/A,,Clear,0,2013-02-12 04:54:00